Temperature
18 18 18 18 18 18 18 18 18 18 18 18 18 18 18 18 18 18 18 18 18 18 18 18 18 18 18 18 18 18 18 18 18 18 18 17 18 18 18 18 18 18 18
18 18 18 18 18 18 18 18 18 18 18 18 18 18 18 18 18 18 18 18 18 18 18 18 18 18 18 18 18 18 18 17 17 18 18 17 17 17 18 18 17 17 17
18 18 18 18 18 18 18 18 18 18 18 18 18 18 18 18 18 18 18 18 18 18 18 18 17 17 17 18 18 17 17 17 17 17 17 17 17 17 17 17 17 17 17
18 18 18 18 18 18 18 18 18 18 18 18 18 18 18 18 18 18 17 17 17 17 17 17 17 17 17 17 17 17 17 17 17 17 17 17 17 17 17 17 17 17 17
18 18 18 18 18 18 18 18 18 18 18 18 18 18 18 18 18 17 17 17 17 17 17 17 17 17 17 17 17 17 17 17 17 17 17 17 17 17 17 17 17 17 17
18 18 18 18 18 18 18 18 18 18 18 18 18 18 17 17 17 17 17 17 17 17 17 17 17 17 17 17 17 17 17 17 17 17 17 17 17 17 17 17 17 17 17
18 18 18 18 18 18 18 18 18 18 18 18 17 17 17 17 17 17 17 17 17 17 17 17 17 17 17 17 17 17 17 17 17 17 17 17 17 17 17 17 17 17 17
18 18 18 18 18 18 18 18 18 18 18 17 17 17 17 17 17 17 17 17 17 17 17 17 17 17 17 17 17 17 17 17 16 16 16 16 16 17 17 17 17 17 17
18 18 18 18 18 18 18 18 18 18 18 17 17 17 17 17 17 17 17 17 17 17 17 17 16 16 16 16 16 16 16 16 16 16 16 16 16 16 16 16 16 16 16
18 18 18 18 18 18 18 17 17 17 17 17 17 17 17 17 17 17 17 17 17 17 16 16 16 16 16 16 16 16 16 16 16 16 16 16 16 16 16 16 16 16 16
18 18 18 18 18 18 18 17 17 17 17 17 17 17 17 17 17 17 17 16 16 16 16 16 16 16 16 16 16 16 16 16 16 16 16 16 16 16 16 16 16 16 16
18 18 18 18 18 18 17 17 17 17 17 17 17 17 17 17 16 16 16 16 16 16 16 16 16 16 16 16 16 16 16 16 16 16 16 16 16 16 16 16 16 16 16
18 18 18 18 18 18 18 17 17 17 17 17 17 17 17 16 16 16 16 16 16 16 16 16 16 16 16 16 16 16 16 16 16 16 16 16 16 16 16 16 16 16 16
18 18 18 18 18 18 17 17 17 17 17 17 17 16 16 16 16 16 16 16 16 16 16 16 16 16 16 16 16 16 16 15 15 16 15 15 15 16 16 16 16 15 15
18 18 18 18 18 18 17 17 17 17 17 17 17 16 16 16 16 16 16 16 16 16 16 16 16 16 16 16 15 15 15 15 15 15 15 15 15 15 15 15 15 15 15
18 18 18 18 18 17 17 17 17 17 17 17 17 16 16 16 16 16 16 16 16 16 16 15 15 15 15 15 15 15 15 15 15 15 15 15 15 15 15 15 15 15 15
18 18 18 18 18 17 17 17 17 17 17 17 16 16 16 16 16 16 16 16 16 15 15 15 15 15 15 15 15 15 15 15 15 15 15 15 15 15 15 15 15 15 14
18 18 18 18 17 17 17 17 17 17 17 16 16 16 16 16 16 16 16 15 15 15 15 15 15 15 15 15 15 15 15 15 15 15 15 15 15 15 15 14 14 14 14
18 18 18 18 17 17 17 17 16 16 16 16 16 16 16 16 16 15 15 15 15 15 15 15 15 15 15 15 15 15 15 15 15 14 14 14 14 14 14 14 14 14 14
18 18 18 17 17 17 17 17 16 16 16 16 16 16 16 16 15 15 15 15 15 15 15 15 15 14 15 15 15 14 14 14 14 14 14 14 14 14 14 14 14 14 14
18 18 18 17 17 17 17 16 16 16 16 16 16 15 15 15 15 15 15 15 15 15 14 14 14 14 14 14 14 14 14 14 14 14 14 14 14 14 14 14 14 14 14
18 18 17 17 17 17 16 16 16 16 16 16 15 15 15 15 15 15 15 15 15 14 14 14 14 14 14 14 14 14 14 13 13 13 13 13 13 13 13 13 13 13 13
18 17 17 17 17 16 16 16 16 16 15 15 15 15 15 15 15 15 15 15 15 14 14 14 14 14 14 14 14 14 13 13 13 13 13 13 13 13 13 13 13 13 13
18 17 17 17 17 16 16 16 16 15 15 15 15 15 15 15 15 15 14 14 14 14 14 14 14 14 14 13 13 13 13 13 13 12 12 12 12 12 13 13 12 12 12
17 17 17 16 16 16 16 16 16 15 15 15 15 15 15 15 14 14 14 14 14 14 14 14 14 13 13 13 13 13 13 13 13 12 12 12 12 12 12 12 12 12 12
17 17 17 16 16 16 16 16 15 15 15 15 14 14 14 14 14 14 14 14 14 14 14 14 13 13 13 13 13 13 13 13 13 12 12 12 12 12 12 12 12 12 12
Wind_Speed
2 4 9 10 10 10 10 10 10 10 10 11 10 11 11 12 12 12 12 12 12 11 11 11 11 12 11 11 10 10 10 9 9 9 8 8 8 8 9 9 8 7 9
6 7 10 10 10 10 9 9 10 10 10 10 10 11 11 11 12 12 12 12 12 11 11 11 11 11 11 10 10 10 9 9 9 8 8 8 8 8 9 9 9 8 9
8 8 9 10 10 9 9 9 9 9 10 10 10 10 11 11 11 11 12 12 11 11 11 11 11 10 10 9 9 9 8 8 8 7 7 6 6 8 8 9 9 9 9
9 8 9 10 10 9 9 8 9 9 9 10 10 10 10 10 11 12 11 11 11 11 11 10 10 9 9 9 8 8 8 8 8 7 6 5 5 7 8 8 8 8 8
9 8 9 10 10 9 8 8 8 9 9 9 9 9 10 10 10 10 10 10 10 10 10 10 9 9 8 8 8 8 9 9 9 7 6 5 5 7 8 8 8 8 8
8 8 10 10 9 9 8 8 8 8 8 9 9 9 9 9 9 9 9 9 9 9 9 9 9 9 8 8 8 8 8 9 9 7 6 6 6 8 8 8 7 7 7
7 8 9 10 9 8 8 8 8 8 8 8 8 9 8 9 9 8 8 8 8 8 8 8 8 8 8 8 8 8 8 8 8 7 5 5 6 7 7 8 8 8 7
8 7 8 9 9 8 7 8 8 8 8 8 8 8 7 7 7 7 7 7 7 7 7 7 7 7 7 8 8 9 9 8 7 6 5 4 7 8 7 7 7 8 7
7 6 5 6 7 7 6 7 7 8 7 7 7 7 7 7 6 6 6 7 6 6 6 6 6 6 7 7 8 8 8 9 7 5 5 4 7 8 8 7 7 7 7
5 5 4 5 4 4 5 6 6 7 7 6 7 6 6 6 6 6 6 6 5 5 5 5 5 5 6 6 6 7 7 8 7 5 4 4 6 7 7 7 7 8 7
4 3 3 3 3 4 4 4 4 5 6 6 5 6 5 4 4 4 4 5 5 5 4 4 4 5 5 5 5 5 5 5 6 4 4 5 7 8 8 8 8 9 8
4 3 3 3 3 4 3 3 3 3 3 4 4 4 4 4 3 3 4 4 5 5 4 5 5 5 4 4 4 5 4 4 4 4 5 6 8 8 9 9 9 9 9
5 4 4 4 4 4 3 3 2 2 3 3 3 4 4 4 3 2 2 3 3 4 4 5 6 5 4 3 3 4 4 4 3 4 6 7 8 8 9 9 8 8 8
5 5 4 4 4 4 4 3 3 2 2 2 3 5 5 3 3 2 2 2 3 3 3 4 3 4 5 5 5 4 4 4 4 4 5 7 7 8 8 8 8 8 7
5 4 4 4 4 3 3 2 3 2 2 3 3 5 6 4 2 2 2 3 3 3 4 4 4 4 4 4 5 5 4 4 5 5 5 6 7 7 7 7 7 7 7
5 5 5 5 4 4 3 2 2 3 3 4 4 5 6 5 3 3 2 3 3 4 4 4 4 4 3 4 4 4 4 4 5 5 5 5 7 7 8 8 7 7 6
6 5 5 5 4 4 3 3 3 3 4 4 4 5 6 6 5 4 3 2 3 5 6 5 5 5 4 4 4 4 4 5 5 5 5 5 6 7 8 7 7 7 7
6 5 4 5 4 4 3 3 3 4 4 3 4 4 5 6 7 5 3 3 4 6 5 4 3 4 4 4 3 3 4 4 5 5 5 6 5 5 6 7 7 6 6
6 5 4 4 4 4 3 3 3 4 4 3 4 4 4 6 7 6 4 3 5 4 3 4 3 3 3 3 3 3 3 4 4 5 5 6 6 5 5 5 6 6 6
5 5 4 3 3 3 3 3 2 3 2 3 3 3 4 5 6 6 4 4 5 4 3 3 3 3 2 2 4 5 4 4 5 5 4 5 6 6 7 7 6 6 7
4 4 4 4 3 4 3 2 2 1 1 1 2 3 4 5 6 5 4 3 3 3 3 3 3 3 3 3 4 4 4 5 5 4 4 4 4 5 6 6 6 6 6
6 5 4 4 4 4 3 2 2 2 1 1 1 3 4 5 5 5 4 3 3 3 3 3 3 3 1 2 3 3 2 4 4 4 3 3 3 4 5 5 6 5 6
5 5 5 4 4 4 4 3 3 3 2 2 2 1 1 4 5 5 4 4 3 3 3 3 3 4 2 1 1 3 3 1 1 2 3 3 3 3 3 4 5 5 5
5 4 5 5 4 4 5 5 5 3 1 1 1 0 0 2 4 4 5 4 3 3 3 3 3 2 3 1 1 1 2 3 2 0 2 2 3 3 2 3 4 4 5
4 4 4 4 4 4 4 5 5 3 1 1 1 1 1 1 2 3 4 4 3 3 3 3 3 2 2 2 1 1 1 2 2 2 0 2 2 2 1 2 3 3 3
3 3 4 4 3 3 4 4 4 4 3 2 1 1 0 0 0 1 3 3 3 2 3 2 3 3 2 2 2 2 2 2 1 2 2 1 1 2 2 1 2 2 2
Wind_Direction
145 138 115 109 102 97 93 93 93 91 91 91 90 90 92 94 92 91 90 88 87 87 88 89 87 87 87 88 91 92 94 94 95 98 99 100 97 99 106 107 107 109 112
149 136 118 111 106 103 98 95 97 95 91 92 95 94 95 96 96 94 92 89 87 87 89 88 87 85 84 83 84 86 89 88 91 95 97 94 96 100 106 110 111 117 116
137 131 122 116 111 107 103 96 97 99 96 96 97 97 98 98 97 95 94 90 87 89 89 87 86 83 81 79 81 81 82 83 86 91 97 94 97 103 105 110 111 112 113
138 134 128 123 116 111 107 102 101 102 101 101 101 101 100 100 98 96 95 92 90 91 90 88 84 83 80 77 76 74 75 77 76 87 93 93 97 105 104 103 108 112 111
133 136 135 129 122 116 112 108 108 108 108 107 105 106 105 103 102 100 98 94 92 92 89 88 84 81 79 76 73 72 72 69 73 87 89 90 98 106 106 105 105 109 112
137 140 140 135 129 123 119 116 114 114 113 112 111 111 109 107 105 103 99 96 94 92 92 91 88 83 78 75 70 67 66 67 72 81 87 95 100 105 108 111 111 114 114
142 147 145 140 136 130 124 120 122 118 116 117 117 115 112 111 109 108 105 100 98 99 96 92 90 85 78 72 70 67 68 70 78 85 87 96 103 107 108 112 114 115 115
145 148 147 146 140 135 130 126 127 123 120 119 121 122 119 115 114 114 111 107 103 103 100 93 91 88 78 72 73 72 70 70 78 84 89 100 110 106 107 111 114 115 116
139 141 146 149 145 141 136 134 131 127 124 121 121 125 128 127 125 122 120 114 110 110 108 102 97 88 76 70 74 74 68 70 73 79 94 101 110 106 102 103 110 114 112
132 139 147 150 154 153 153 150 143 135 130 123 121 122 126 130 132 133 130 124 121 117 114 109 98 86 70 65 69 68 68 71 75 71 84 109 115 111 105 103 111 111 109
138 147 142 148 160 163 167 164 151 138 132 128 122 121 118 115 121 127 123 120 116 111 109 105 90 78 63 55 59 63 67 75 80 75 86 108 114 112 109 108 109 107 104
148 153 150 153 154 155 153 123 124 121 117 122 125 118 112 111 108 109 110 106 97 89 85 84 81 68 63 53 49 61 77 83 86 93 101 109 110 110 108 110 110 111 108
159 144 140 142 134 134 126 125 116 103 104 114 124 128 118 107 95 86 81 69 60 66 69 64 62 60 67 69 66 70 81 89 88 95 105 109 109 108 109 112 112 111 111
138 143 147 142 134 131 127 122 119 107 105 113 122 125 124 108 97 103 90 77 68 63 66 67 67 63 66 73 82 80 79 86 82 91 98 105 107 109 110 110 110 110 108
144 143 151 143 136 135 125 123 115 120 115 109 118 131 127 121 124 113 93 90 77 72 69 65 65 65 63 65 76 82 81 85 89 92 96 99 98 99 104 106 107 105 103
150 150 148 142 144 132 127 124 112 104 105 99 99 119 126 125 120 106 98 88 82 86 81 77 75 75 67 70 65 74 82 87 88 93 94 96 93 90 93 96 99 101 101
153 146 144 144 137 133 133 133 108 106 98 93 96 105 112 114 113 108 101 93 89 87 82 78 69 70 68 65 57 59 72 80 86 90 92 86 84 82 85 87 87 90 91
145 144 149 143 141 139 136 124 106 102 96 91 93 102 110 117 112 104 104 102 94 88 83 86 72 70 61 58 54 49 57 69 79 91 87 81 81 80 79 78 76 77 81
149 148 140 137 142 142 130 116 103 96 93 94 91 93 106 114 115 111 105 96 94 84 80 87 72 81 77 63 67 61 52 62 65 79 76 73 76 77 75 73 70 64 69
146 146 138 131 127 125 113 101 83 78 81 85 93 98 109 113 116 112 103 95 94 88 75 84 83 64 75 74 76 62 51 49 61 67 71 70 69 69 68 66 63 56 57
134 134 138 133 131 125 116 114 112 119 122 77 83 95 107 116 119 113 111 105 102 102 101 101 97 78 59 66 74 51 31 37 51 50 51 62 57 60 65 65 63 56 47
155 156 150 148 143 141 142 148 149 137 131 129 62 73 100 116 119 120 120 125 124 117 100 94 102 99 83 59 92 87 34 9 16 35 33 55 52 53 58 60 64 60 46
158 162 160 160 148 140 131 110 86 62 47 38 37 49 80 116 117 120 121 126 129 130 133 130 126 123 128 22 73 117 125 203 323 1 19 36 44 51 50 53 56 54 48
173 162 152 152 145 141 134 133 135 131 146 206 189 161 61 110 114 120 124 126 134 136 142 152 140 130 127 129 352 56 131 146 141 354 351 3 34 49 43 54 48 48 50
163 153 152 145 140 138 137 143 143 139 146 123 89 88 70 80 106 120 128 135 142 146 155 153 138 138 135 140 147 124 87 76 103 135 228 328 355 1 30 64 57 48 51
144 135 133 134 139 142 138 139 142 144 136 118 100 117 214 243 237 143 136 147 153 151 157 159 155 154 152 142 141 144 146 142 163 151 172 219 295 317 353 36 54 42 45
Height
1526 1526 1525 1525 1524 1524 1523 1523 1522 1522 1522 1521 1521 1521 1521 1520 1520 1520 1520 1520 1520 1520 1520 1520 1521 1521 1521 1521 1521 1521 1521 1521 1521 1521 1522 1522 1522 1522 1523 1523 1523 1523 1523
1526 1526 1526 1525 1525 1524 1524 1523 1523 1523 1523 1522 1522 1522 1522 1521 1521 1521 1521 1521 1521 1521 1521 1521 1522 1522 1522 1522 1522 1522 1522 1521 1521 1522 1522 1522 1522 1523 1523 1523 1523 1523 1524
1527 1527 1527 1526 1526 1525 1525 1524 1524 1523 1523 1523 1523 1523 1523 1522 1522 1522 1522 1522 1522 1522 1522 1522 1522 1522 1522 1522 1522 1522 1522 1522 1522 1522 1522 1522 1523 1523 1523 1523 1524 1524 1524
1527 1527 1527 1527 1526 1526 1525 1525 1525 1524 1524 1524 1524 1524 1524 1523 1523 1523 1523 1523 1523 1523 1523 1523 1523 1523 1523 1523 1523 1523 1523 1523 1523 1523 1523 1523 1523 1523 1523 1524 1524 1524 1524
1528 1528 1528 1528 1527 1527 1526 1526 1526 1525 1525 1525 1525 1524 1524 1524 1524 1524 1524 1524 1524 1524 1524 1524 1524 1524 1524 1524 1524 1524 1524 1523 1523 1523 1523 1523 1523 1524 1523 1524 1524 1524 1524
1529 1529 1529 1528 1528 1528 1527 1527 1526 1526 1526 1526 1525 1525 1525 1525 1525 1525 1525 1525 1525 1525 1525 1525 1524 1524 1524 1524 1524 1524 1524 1524 1524 1524 1524 1524 1524 1524 1524 1524 1524 1524 1524
1529 1529 1529 1529 1529 1529 1528 1528 1527 1527 1527 1526 1526 1526 1526 1526 1526 1526 1526 1526 1526 1526 1525 1525 1525 1525 1525 1525 1525 1525 1525 1525 1525 1524 1524 1524 1524 1524 1524 1524 1524 1524 1524
1530 1530 1530 1530 1530 1529 1529 1529 1528 1528 1527 1527 1527 1527 1527 1527 1527 1527 1527 1527 1526 1526 1526 1526 1526 1526 1526 1525 1525 1525 1525 1525 1525 1525 1525 1525 1525 1524 1524 1524 1524 1524 1524
1531 1531 1531 1531 1531 1530 1530 1530 1529 1529 1528 1528 1528 1527 1527 1527 1528 1527 1527 1527 1527 1527 1527 1527 1527 1527 1527 1526 1526 1526 1526 1526 1525 1525 1525 1525 1525 1525 1524 1524 1524 1524 1524
1532 1532 1532 1532 1532 1531 1531 1531 1530 1530 1529 1529 1528 1528 1528 1528 1528 1528 1528 1528 1528 1528 1528 1528 1528 1528 1527 1527 1527 1526 1526 1526 1526 1526 1526 1525 1525 1525 1524 1524 1524 1524 1524
1532 1532 1532 1532 1532 1532 1532 1531 1531 1531 1530 1530 1529 1529 1529 1529 1529 1529 1529 1529 1529 1529 1529 1529 1528 1528 1528 1528 1527 1527 1527 1526 1526 1526 1526 1526 1526 1525 1524 1524 1524 1524 1524
1533 1533 1533 1533 1533 1532 1532 1532 1532 1531 1531 1530 1530 1530 1530 1530 1530 1530 1530 1530 1530 1530 1530 1529 1529 1529 1529 1528 1528 1527 1527 1527 1527 1526 1526 1526 1526 1525 1525 1524 1524 1524 1524
1533 1533 1533 1533 1533 1533 1533 1533 1532 1532 1532 1531 1531 1531 1531 1531 1531 1531 1531 1531 1531 1530 1530 1530 1530 1529 1529 1529 1528 1528 1527 1527 1527 1527 1527 1527 1526 1526 1525 1525 1524 1525 1525
1533 1534 1534 1534 1534 1534 1534 1533 1533 1533 1532 1532 1532 1532 1531 1531 1531 1531 1531 1531 1531 1531 1531 1531 1530 1530 1529 1529 1529 1528 1528 1528 1528 1527 1527 1527 1527 1526 1526 1525 1525 1525 1525
1533 1534 1534 1534 1534 1534 1534 1534 1534 1533 1533 1533 1532 1532 1532 1532 1532 1532 1531 1531 1531 1531 1531 1531 1531 1530 1530 1529 1529 1529 1528 1528 1528 1528 1528 1528 1527 1527 1527 1526 1526 1526 1526
1533 1534 1534 1534 1535 1535 1534 1534 1534 1534 1533 1533 1533 1533 1533 1533 1532 1532 1532 1532 1531 1531 1531 1531 1531 1530 1530 1530 1529 1529 1529 1529 1529 1529 1528 1528 1528 1527 1527 1527 1526 1526 1526
1533 1534 1534 1534 1535 1535 1535 1534 1534 1534 1534 1534 1533 1533 1533 1533 1533 1532 1532 1532 1532 1531 1531 1531 1531 1530 1530 1530 1530 1529 1529 1529 1529 1529 1529 1529 1528 1528 1528 1528 1527 1527 1527
1533 1534 1534 1534 1534 1535 1534 1534 1534 1534 1534 1534 1534 1534 1533 1533 1533 1533 1532 1532 1532 1531 1531 1531 1531 1530 1530 1530 1530 1530 1530 1530 1530 1530 1530 1530 1529 1529 1529 1528 1528 1528 1528
1532 1533 1534 1534 1534 1534 1534 1534 1534 1534 1534 1534 1534 1533 1533 1533 1533 1532 1532 1532 1532 1531 1531 1531 1531 1530 1530 1530 1530 1530 1530 1531 1530 1530 1530 1530 1530 1530 1529 1529 1529 1529 1528
1532 1532 1533 1533 1533 1534 1534 1534 1534 1534 1533 1533 1533 1533 1533 1533 1533 1532 1532 1532 1532 1531 1531 1531 1530 1530 1530 1530 1530 1530 1531 1531 1531 1531 1531 1531 1530 1530 1530 1530 1529 1529 1528
1531 1531 1532 1532 1532 1532 1532 1532 1532 1532 1532 1532 1532 1532 1532 1532 1532 1532 1532 1531 1531 1531 1530 1530 1530 1530 1530 1530 1530 1530 1531 1531 1531 1531 1531 1531 1531 1530 1530 1530 1529 1529 1528
1529 1530 1531 1531 1531 1531 1531 1531 1532 1532 1532 1532 1532 1531 1531 1532 1532 1531 1531 1531 1531 1530 1530 1530 1530 1530 1530 1530 1530 1530 1531 1532 1531 1531 1531 1531 1531 1531 1530 1530 1529 1529 1528
1527 1528 1529 1530 1530 1530 1531 1531 1531 1531 1531 1531 1531 1530 1531 1531 1531 1531 1531 1530 1530 1530 1530 1530 1530 1529 1529 1530 1530 1530 1530 1530 1531 1532 1532 1531 1531 1530 1530 1530 1529 1529 1528
1525 1526 1527 1528 1529 1529 1530 1529 1529 1529 1529 1530 1530 1530 1530 1530 1530 1530 1530 1530 1530 1529 1529 1529 1529 1529 1529 1529 1530 1530 1531 1530 1530 1531 1532 1531 1530 1530 1530 1529 1529 1529 1528
1524 1525 1526 1527 1527 1528 1528 1528 1528 1528 1528 1528 1529 1528 1528 1528 1528 1528 1528 1529 1529 1529 1529 1528 1529 1529 1529 1529 1529 1529 1529 1529 1529 1529 1529 1530 1530 1529 1529 1529 1529 1529 1528
1522 1523 1524 1525 1525 1526 1526 1526 1526 1526 1526 1527 1527 1527 1527 1527 1527 1527 1527 1527 1527 1527 1527 1527 1527 1528 1528 1528 1528 1528 1528 1528 1528 1528 1528 1528 1528 1528 1528 1528 1528 1528 1528